| time (UTC) | temp F | wind direction | speed knots | gust knots | rain 1hr in | rain 24hr in | rain mn in | humidity % | barometer mb |
| 20260508043017 | 45 | 202 | 0.0 | 0.9 | 0.00 | 0.00 | 0.00 | 51 | 1009.2 |
| 20260508041509 | 43 | 202 | 0.0 | 1.7 | 0.00 | 0.00 | 0.00 | 54 | 1009.2 |
| 20260508040006 | 42 | 238 | 0.0 | 1.7 | 0.00 | 0.00 | 0.00 | 56 | 1009.3 |
| 20260508034505 | 45 | 225 | 0.0 | 0.9 | 0.00 | 0.00 | 0.00 | 51 | 1009.3 |
| 20260508033002 | 45 | 225 | 0.0 | 0.9 | 0.00 | 0.00 | 0.00 | 52 | 1009.3 |
| 20260508031501 | 45 | 225 | 0.0 | 0.9 | 0.00 | 0.00 | 0.00 | 54 | 1009.3 |
| 20260508030100 | 45 | 225 | 0.0 | 0.9 | 0.00 | 0.00 | 0.00 | 53 | 1009.3 |
| 20260508030001 | 45 | 225 | 0.0 | 0.9 | 0.00 | 0.00 | 0.00 | 53 | 1009.3 |
| 20260508024604 | 46 | 225 | 0.0 | 0.9 | 0.00 | 0.00 | 0.00 | 49 | 1009.3 |
| 20260508023056 | 47 | 225 | 0.0 | 0.9 | 0.00 | 0.00 | 0.00 | 47 | 1009.2 |
| 20260508021552 | 47 | 225 | 0.0 | 1.7 | 0.00 | 0.00 | 0.00 | 47 | 1009.2 |
| 20260508020048 | 48 | 235 | 1.7 | 2.6 | 0.00 | 0.00 | 0.00 | 45 | 1009.0 |
| 20260508014544 | 49 | 219 | 1.7 | 2.6 | 0.00 | 0.00 | 0.00 | 43 | 1008.9 |
| 20260508013036 | 50 | 221 | 0.9 | 2.6 | 0.00 | 0.00 | 0.00 | 41 | 1008.8 |
| 20260508011532 | 53 | 292 | 0.0 | 0.9 | 0.00 | 0.00 | 0.00 | 39 | 1008.8 |
| 20260508010033 | 56 | 292 | 0.0 | 1.7 | 0.00 | 0.00 | 0.00 | 28 | 1008.7 |
| 20260508004529 | 57 | 348 | 0.0 | 1.7 | 0.00 | 0.00 | 0.00 | 26 | 1008.6 |
| 20260508003058 | 56 | 355 | 0.9 | 4.3 | 0.00 | 0.00 | 0.00 | 26 | 1008.8 |
| 20260508001556 | 57 | 308 | 0.9 | 6.1 | 0.00 | 0.00 | 0.00 | 26 | 1008.7 |
| 20260508000024 | 57 | 336 | 1.7 | 6.1 | 0.00 | 0.00 | 0.00 | 24 | 1009.0 |
| 20260507234534 | 57 | 20 | 3.5 | 8.7 | 0.00 | 0.00 | 0.00 | 24 | 1009.0 |
| 20260507233020 | 61 | 355 | 0.9 | 5.2 | 0.00 | 0.00 | 0.00 | 23 | 1009.0 |
| 20260507231519 | 58 | 326 | 2.6 | 7.8 | 0.00 | 0.00 | 0.00 | 25 | 1009.1 |
| 20260507230018 | 58 | 350 | 3.5 | 8.7 | 0.00 | 0.00 | 0.00 | 23 | 1009.0 |
| 20260507224522 | 58 | 313 | 4.3 | 10.4 | 0.00 | 0.00 | 0.00 | 23 | 1009.1 |
| 20260507223013 | 59 | 290 | 2.6 | 7.0 | 0.00 | 0.00 | 0.00 | 23 | 1009.2 |
| 20260507221513 | 58 | 322 | 3.5 | 10.4 | 0.00 | 0.00 | 0.00 | 23 | 1009.3 |
| 20260507220012 | 59 | 355 | 3.5 | 8.7 | 0.00 | 0.00 | 0.00 | 23 | 1009.3 |
| 20260507214521 | 62 | 335 | 1.7 | 5.2 | 0.00 | 0.00 | 0.00 | 21 | 1009.2 |
| 20260507213005 | 59 | 317 | 4.3 | 9.6 | 0.00 | 0.00 | 0.00 | 23 | 1009.4 |
| 20260507211506 | 58 | 351 | 3.5 | 10.4 | 0.00 | 0.00 | 0.00 | 23 | 1009.3 |
| 20260507210002 | 61 | 104 | 1.7 | 11.3 | 0.00 | 0.00 | 0.00 | 23 | 1009.1 |
| 20260507204559 | 58 | 323 | 5.2 | 13.9 | 0.00 | 0.00 | 0.00 | 23 | 1009.6 |
| 20260507203057 | 59 | 344 | 5.2 | 13.9 | 0.00 | 0.00 | 0.00 | 23 | 1009.7 |
| 20260507201603 | 58 | 85 | 2.6 | 9.6 | 0.00 | 0.00 | 0.00 | 29 | 1009.9 |
| 20260507200046 | 57 | 17 | 2.6 | 10.4 | 0.00 | 0.00 | 0.00 | 29 | 1010.1 |
| 20260507194545 | 57 | 87 | 2.6 | 10.4 | 0.00 | 0.00 | 0.00 | 29 | 1010.1 |
| 20260507193051 | 56 | 26 | 6.1 | 11.3 | 0.00 | 0.00 | 0.00 | 24 | 1010.2 |
| 20260507191540 | 56 | 35 | 1.7 | 15.6 | 0.00 | 0.00 | 0.00 | 26 | 1010.2 |
| 20260507190037 | 56 | 80 | 5.2 | 11.3 | 0.00 | 0.00 | 0.00 | 25 | 1010.4 |
| 20260507184535 | 56 | 111 | 7.8 | 14.8 | 0.00 | 0.00 | 0.00 | 28 | 1010.4 |
| 20260507183034 | 55 | 74 | 4.3 | 13.9 | 0.00 | 0.00 | 0.00 | 30 | 1010.4 |
| 20260507181526 | 55 | 83 | 8.7 | 15.6 | 0.00 | 0.00 | 0.00 | 28 | 1010.6 |
| 20260507180022 | 55 | 161 | 5.2 | 12.2 | 0.00 | 0.00 | 0.00 | 30 | 1010.8 |
| 20260507174517 | 54 | 77 | 6.1 | 13.9 | 0.00 | 0.00 | 0.00 | 30 | 1010.9 |
| 20260507173025 | 54 | 90 | 2.6 | 10.4 | 0.00 | 0.00 | 0.00 | 29 | 1011.2 |
| 20260507171503 | 54 | 56 | 4.3 | 12.2 | 0.00 | 0.00 | 0.00 | 31 | 1011.3 |
| 20260507170057 | 53 | 30 | 4.3 | 10.4 | 0.00 | 0.00 | 0.00 | 30 | 1011.3 |
| 20260507164552 | 51 | 165 | 4.3 | 12.2 | 0.00 | 0.00 | 0.00 | 31 | 1011.5 |
| 20260507163044 | 52 | 171 | 4.3 | 12.2 | 0.00 | 0.00 | 0.00 | 34 | 1011.6 |
| 20260507161533 | 52 | 88 | 5.2 | 12.2 | 0.00 | 0.00 | 0.00 | 35 | 1011.8 |
| 20260507160029 | 52 | 346 | 3.5 | 11.3 | 0.00 | 0.00 | 0.00 | 39 | 1011.8 |
| 20260507154528 | 51 | 47 | 3.5 | 11.3 | 0.00 | 0.00 | 0.00 | 42 | 1011.9 |
| 20260507153022 | 50 | 51 | 2.6 | 10.4 | 0.00 | 0.00 | 0.00 | 42 | 1011.9 |
| 20260507151517 | 48 | 88 | 3.5 | 8.7 | 0.00 | 0.00 | 0.00 | 43 | 1012.1 |
| 20260507150013 | 49 | 346 | 3.5 | 10.4 | 0.00 | 0.00 | 0.00 | 45 | 1012.2 |
| 20260507144511 | 48 | 67 | 3.5 | 10.4 | 0.00 | 0.00 | 0.00 | 46 | 1012.2 |
| 20260507143006 | 48 | 323 | 4.3 | 8.7 | 0.00 | 0.00 | 0.00 | 49 | 1012.5 |
| 20260507141623 | 46 | 320 | 2.6 | 7.0 | 0.00 | 0.00 | 0.00 | 52 | 1012.7 |
| 20260507140055 | 46 | 17 | 1.7 | 4.3 | 0.00 | 0.00 | 0.00 | 54 | 1012.8 |
| 20260507134552 | 47 | 355 | 0.9 | 2.6 | 0.00 | 0.00 | 0.00 | 50 | 1012.9 |
| 20260507133051 | 45 | 91 | 2.6 | 4.3 | 0.00 | 0.00 | 0.00 | 56 | 1012.8 |
| 20260507131548 | 42 | 65 | 1.7 | 4.3 | 0.00 | 0.00 | 0.00 | 56 | 1012.9 |
| 20260507130058 | 40 | 347 | 1.7 | 5.2 | 0.00 | 0.00 | 0.00 | 59 | 1013.1 |
| 20260507124548 | 43 | 224 | 0.0 | 1.7 | 0.00 | 0.00 | 0.00 | 59 | 1013.1 |
| 20260507123049 | 41 | 231 | 0.0 | 0.9 | 0.00 | 0.00 | 0.00 | 67 | 1013.2 |
| 20260507121546 | 37 | 206 | 0.9 | 2.6 | 0.00 | 0.00 | 0.00 | 72 | 1013.1 |
| 20260507120046 | 36 | 197 | 0.0 | 1.7 | 0.00 | 0.00 | 0.00 | 73 | 1013.1 |
| 20260507114542 | 34 | 197 | 0.0 | 0.9 | 0.00 | 0.00 | 0.00 | 74 | 1013.0 |
| 20260507113042 | 35 | 197 | 0.0 | 0.9 | 0.00 | 0.00 | 0.00 | 71 | 1012.9 |
| 20260507111544 | 34 | 197 | 0.0 | 0.9 | 0.00 | 0.00 | 0.00 | 75 | 1012.8 |
| 20260507110039 | 34 | 197 | 0.0 | 0.9 | 0.00 | 0.00 | 0.00 | 75 | 1012.8 |
| 20260507104537 | 35 | 197 | 0.0 | 0.9 | 0.00 | 0.00 | 0.00 | 70 | 1012.7 |
| 20260507103040 | 35 | 197 | 0.0 | 1.7 | 0.00 | 0.00 | 0.00 | 71 | 1012.7 |
| 20260507101543 | 36 | 197 | 0.0 | 1.7 | 0.00 | 0.00 | 0.00 | 66 | 1012.8 |
| 20260507100036 | 37 | 220 | 0.0 | 1.7 | 0.00 | 0.00 | 0.00 | 64 | 1012.7 |
| 20260507094540 | 38 | 244 | 0.0 | 0.9 | 0.00 | 0.00 | 0.00 | 66 | 1012.9 |
| 20260507093034 | 39 | 245 | 0.0 | 1.7 | 0.00 | 0.00 | 0.00 | 63 | 1013.0 |
| 20260507091628 | 38 | 225 | 1.7 | 4.3 | 0.00 | 0.00 | 0.00 | 64 | 1012.9 |
| 20260507090057 | 38 | 257 | 0.9 | 3.5 | 0.00 | 0.00 | 0.00 | 65 | 1012.9 |
| 20260507084556 | 38 | 171 | 1.7 | 3.5 | 0.00 | 0.00 | 0.00 | 65 | 1013.0 |
| 20260507083053 | 40 | 193 | 0.0 | 0.9 | 0.00 | 0.00 | 0.00 | 63 | 1013.1 |
| 20260507081552 | 39 | 197 | 0.0 | 1.7 | 0.00 | 0.00 | 0.00 | 65 | 1013.1 |
| 20260507080051 | 39 | 165 | 0.9 | 1.7 | 0.00 | 0.00 | 0.00 | 63 | 1013.1 |
| 20260507074552 | 40 | 217 | 0.9 | 2.6 | 0.00 | 0.00 | 0.00 | 62 | 1013.1 |
| 20260507073021 | 41 | 204 | 0.0 | 0.9 | 0.00 | 0.00 | 0.00 | 60 | 1013.2 |
| 20260507071519 | 41 | 204 | 0.0 | 0.9 | 0.00 | 0.00 | 0.00 | 60 | 1013.4 |
| 20260507070051 | 42 | 204 | 0.0 | 1.7 | 0.00 | 0.00 | 0.00 | 61 | 1013.5 |
| 20260507064548 | 42 | 209 | 0.0 | 0.9 | 0.00 | 0.00 | 0.00 | 60 | 1013.7 |
| 20260507063048 | 40 | 209 | 0.0 | 1.7 | 0.00 | 0.00 | 0.00 | 64 | 1013.7 |
| 20260507061542 | 41 | 15 | 0.0 | 1.7 | 0.00 | 0.00 | 0.00 | 63 | 1013.7 |
| 20260507060050 | 40 | 15 | 0.0 | 0.0 | 0.00 | 0.00 | 0.00 | 64 | 1013.9 |
| 20260507054547 | 39 | 15 | 0.0 | 1.7 | 0.00 | 0.00 | 0.00 | 68 | 1014.0 |
| 20260507053040 | 37 | 297 | 0.0 | 0.9 | 0.00 | 0.00 | 0.00 | 68 | 1013.9 |
| 20260507051535 | 38 | 297 | 0.0 | 0.9 | 0.00 | 0.00 | 0.00 | 66 | 1013.9 |
| 20260507050032 | 38 | 221 | 0.0 | 0.9 | 0.00 | 0.00 | 0.00 | 67 | 1014.0 |
| 20260507044546 | 40 | 221 | 0.0 | 0.9 | 0.00 | 0.00 | 0.00 | 65 | 1014.1 |